Printer-friendly version

IAU Minor Planet Center

Minor Planet Center

MPEC 2006-K38 : 2006 KQ21

The following Minor Planet Electronic Circular may be linked-to from your own Web pages, but must not otherwise be redistributed electronically.


Read MPEC 2006-K37 Read MPEC 2006-K39


M.P.E.C. 2006-K38                                Issued 2006 May 24, 11:06 UT

     The Minor Planet Electronic Circulars contain information on unusual
         minor planets and routine data on comets.  They are published
   on behalf of Commission 20 of the International Astronomical Union by the
          Minor Planet Center, Smithsonian Astrophysical Observatory,
                          Cambridge, MA 02138, U.S.A.

                  Supported in part by the Brinson Foundation
                  Supported in part by the TABASGO Foundation
             Prepared using the Tamkin Foundation Computer Network

                              MPC@CFA.HARVARD.EDU
          URL http://cfa-www.harvard.edu/iau/mpc.html  ISSN 1523-6714

                                   2006 KQ21

Observations:
     K06K21Q* C2006 05 23.25300 15 25 00.02 -08 18 58.1          20.9 V EK038691
     K06K21Q  C2006 05 23.27029 15 24 58.70 -08 18 50.6          21.1 V EK038691
     K06K21Q  C2006 05 23.28758 15 24 57.39 -08 18 42.8          20.9 V EK038691
     K06K21Q  C2006 05 23.37415 15 24 50.72 -08 18 05.3          21.4 V EK038291
     K06K21Q  C2006 05 23.37855 15 24 50.39 -08 18 03.2          21.4 V EK038291
     K06K21Q  C2006 05 23.38228 15 24 50.10 -08 18 01.5          21.6 V EK038291
     K06K21Q  C2006 05 24.26760 15 23 44.94 -08 11 36.9          21.8 V EK038291
     K06K21Q  C2006 05 24.27152 15 23 44.62 -08 11 35.3          21.6 V EK038291
     K06K21Q  C2006 05 24.27538 15 23 44.32 -08 11 33.5          21.8 V EK038291
     K06K21Q  C2006 05 24.36583 15 23 37.32 -08 10 55.2          20.9 V EK038G96
     K06K21Q  C2006 05 24.37153 15 23 36.92 -08 10 52.8          21.0 V EK038G96
     K06K21Q  C2006 05 24.37718 15 23 36.45 -08 10 50.2          20.9 V EK038G96
     K06K21Q  C2006 05 24.38287 15 23 36.06 -08 10 47.8          20.8 V EK038G96

Observer details:
291 LPL/Spacewatch II.  Observer T. H. Bressi.  1.8-m f/2.7 reflector + CCD.
691 Steward Observatory, Kitt Peak.  Observer T. H. Bressi.  0.9-m f/3
    reflector + CCD.
G96 Mt. Lemmon Survey.  Observer E. J. Christensen.  Measurers E. C. Beshore,
    E. J. Christensen, G. J. Garradd, A. R. Gibbs, A. D. Grauer, R. E. Hill,
    R. A. Kowalski, S. M. Larson, R. H. McNaught.  1.5-m reflector + CCD.

Orbital elements:
2006 KQ21                                                Earth MOID = 0.1575 AU
Epoch 2006 Mar. 6.0 TT = JDT 2453800.5                  MPC
M 319.02280              (2000.0)            P               Q
n   0.18325913     Peri.  165.26488     +0.88394626     +0.46710049
a   3.0696744      Node   166.82600     -0.43792742     +0.84301874
e   0.6200176      Incl.    5.37707     -0.16388586     +0.26671434
P   5.38           H   19.1           G   0.15           U   9
Residuals in seconds of arc
060523 691  0.2-  0.0     060523 291  0.0   0.0     060524 G96  0.2+  0.6-
060523 691  0.0   0.0     060524 291  0.2+  0.2+    060524 G96  0.4-  0.5-
060523 691  0.3+  0.2+    060524 291  0.1-  0.1+    060524 G96  0.3+  0.6-
060523 291  0.0   0.3-    060524 291  0.1-  0.3+
060523 291  0.0   0.1-    060524 G96  0.4-  0.6-

Ephemeris:
2006 KQ21                a,e,i = 3.07, 0.62, 5                   q = 1.1664
Date    TT    R. A. (2000) Decl.     Delta      r     Elong.  Phase     V
2006 05 25    15 22.84   -08 06.3    1.004    1.996   163.5     8.3    21.2
2006 06 04    15 10.65   -07 01.8    0.962    1.918   152.2    14.3    21.2
2006 06 14    14 59.97   -06 16.4    0.940    1.841   140.5    20.5    21.3
2006 06 24    14 52.23   -05 56.3    0.934    1.763   129.4    26.5    21.4
2006 07 04    14 48.43   -06 04.2    0.938    1.687   119.3    31.7    21.4
2006 07 14    14 49.05   -06 39.4    0.947    1.611   110.2    36.3    21.5
2006 07 24    14 54.16   -07 39.2    0.958    1.538   102.4    40.2    21.5
2006 08 03    15 03.73   -09 00.2    0.966    1.467    95.6    43.5    21.5
2006 08 13    15 17.64   -10 38.5    0.971    1.401    89.8    46.3    21.5
2006 08 23    15 35.80   -12 29.6    0.970    1.340    85.0    48.8    21.5
2006 09 02    15 58.29   -14 28.9    0.965    1.285    81.2    50.9    21.5
2006 09 12    16 25.17   -16 30.0    0.956    1.239    78.3    52.7    21.4
2006 09 22    16 56.56   -18 25.3    0.945    1.203    76.2    54.1    21.4
2006 10 02    17 32.56   -20 04.9    0.934    1.179    75.0    55.1    21.3
2006 10 12    18 12.91   -21 16.6    0.926    1.167    74.6    55.5    21.3
2006 10 22    18 56.94   -21 48.1    0.926    1.169    74.8    55.3    21.3
2006 11 01    19 43.43   -21 29.0    0.938    1.184    75.6    54.3    21.3
2006 11 11    20 30.65   -20 15.3    0.964    1.212    76.6    52.6    21.4
2006 11 21    21 16.80   -18 11.2    1.008    1.251    77.6    50.5    21.5
2006 12 01    22 00.51   -15 28.0    1.070    1.299    78.3    48.0    21.6
2006 12 11    22 40.95   -12 20.5    1.150    1.356    78.4    45.4    21.8
2006 12 21    23 17.95   -09 02.6    1.248    1.419    78.0    42.7    22.0

Timothy B. Spahr             (C) Copyright 2006 MPC           M.P.E.C. 2006-K38

Read MPEC 2006-K37 Read MPEC 2006-K39


Our Web policy. Index to the CBAT/MPC/ICQ pages.


Valid HTML 4.01!